Location: Knowlton
(51.2333°N, 1.2667°E)
Time: 04:09:48
(UTC+00:00)

Ariane Rocket - Pass Details

Date: 18 April 2021
Orbit: 760 x 770 km, 98.7° (Epoch: 06 May)

Event Time Altitude Azimuth Distance (km) Brightness Sun altitude
Exits shadow 20:07:30 - 173° (S) 3,103 5.8 -10.8°
Reaches altitude 10° 20:09:32 10° 176° (S) 2,290 5.1 -11.1°
Maximum altitude 20:14:32 64° 258° (WSW) 847 3.4 -11.7°
Drops below altitude 10° 20:19:35 10° 339° (NNW) 2,304 6.4 -12.3°
Sets 20:21:55 0° 343° (NNW) 3,235 7.2 -12.6°
